[Iaude] MPEC M04: 2024 LP5 [a=2.12,e=0.44,i=6.7,H=22.6]

mpec at cfa.harvard.edu mpec at cfa.harvard.edu
Sun Jun 16 07:55:43 EDT 2024


M.P.E.C. 2024-M04                                 Issued 2024 June 16, 11:54 UT

     The Minor Planet Electronic Circulars contain information on unusual
         minor planets, routine data on comets and natural satellites,
         and occasional editorial announcements.  They are published
    on behalf of Division F of the International Astronomical Union by the
          Minor Planet Center, Smithsonian Astrophysical Observatory,
                          Cambridge, MA 02138, U.S.A.
			  
             Prepared using the Tamkin Foundation Computer Network

                              MPC at CFA.HARVARD.EDU
            URL https://www.minorplanetcenter.net/    ISSN 1523-6714

                                    2024 LP5                                    


Observations:
     K24L05P* C2024 06 12.54133620 44 04.664-26 59 38.09         21.60wXEM004F52
     K24L05P  C2024 06 12.55115320 44 06.176-26 59 13.82         21.16wXEM004F52
     K24L05P  C2024 06 12.56094220 44 07.658-26 58 49.09         20.83wXEM004F52
     K24L05P 6C2024 06 13.10304120 45 38.632-26 36 07.86         21.7 GVEM004Z84
     K24L05P 6C2024 06 13.11380520 45 40.296-26 35 40.95         21.5 GVEM004Z84
     K24L05P 6C2024 06 13.12457020 45 41.914-26 35 13.40         20.9 GVEM004Z84
     K24L05P 3C2024 06 13.59400120 46 58.261-26 15 16.49         20.94GVEM004T14
     K24L05P 3C2024 06 13.59498020 46 58.405-26 15 14.00         20.91GVEM004T14
     K24L05P 3C2024 06 13.59599720 46 58.552-26 15 11.43         20.97GVEM004T14
     K24L05P 3C2024 06 13.59697820 46 58.695-26 15 08.90         20.94GVEM004T14
     K24L05P KC2024 06 16.44571 20 54 20.18 -24 13 07.5                VEM004291
     K24L05P KC2024 06 16.44861 20 54 20.56 -24 12 59.7                VEM004291
     K24L05P KC2024 06 16.45152 20 54 20.93 -24 12 52.6                VEM004291

Observer details:
291 LPL/Spacewatch II.  Observer T. H. Bressi.  1.8-m f/2.7 reflector + CCD.
F52 Pan-STARRS 2, Haleakala.  Observers J. Herman, T. Lowe, P. Minguez, A.
    Schultz, I. Smith.  Measurers K. Chambers, T. de Boer, J. Fairlamb, H.
    Gao, M. Huber, C.-C. Lin, E. Magnier, Y. Ramanjooloo, R. Wainscoat, R.
    Weryk.  1.8-m Ritchey-Chretien + CCD.
T14 Canada-France-Hawaii Telescope, Maunakea.  Observers R. Wainscoat, H.
    Januszewski, T. Burdullis.  Measurers R. Weryk, R. Wainscoat.  3.6-m f/4.1
    reflector + CCD.
Z84 Calar Alto-Schmidt.  Observers M. Micheli, R. Kresken.  Measurers R.
    Kresken, M. Micheli, F. Ocana, L. Conversi.  0.8-m f/3 Schmidt + CCD.

Orbital elements:
2024 LP5                                                 Earth MOID = 0.1717 AU
Epoch 2024 Mar. 31.0 TT = JDT 2460400.5                 Veres                   
M 335.82242              (2000.0)            P               Q                  
n   0.31974209     Peri.  347.79005     +0.02157435     +0.99329213             
a   2.1180498      Node   283.36550     -0.90716556     -0.02831061             
e   0.4398395      Incl.    6.70538     -0.42022040     +0.11211271             
P   3.08           H   22.66          G   0.15           U   9                  
Residuals in seconds of arc
240612 F52  0.2-  0.1+    240613 Z84  0.1+  0.3+    240616 291  0.0   0.0
240612 F52  0.0   0.2-    240613 T14  0.0   0.0     240616 291  0.0   0.3+
240612 F52  0.0   0.0     240613 T14  0.1+  0.0     240616 291  0.1-  0.2-
240613 Z84  0.3-  0.1-    240613 T14  0.0   0.1-
240613 Z84  0.2+  0.2-    240613 T14  0.0   0.0

Ephemeris:
2024 LP5                 a,e,i = 2.12, 0.44, 7                   q = 1.1864
Date    TT    R. A. (2000) Decl.     Delta      r    Elong.  Phase     V
2024 05 17    19 02 08.6 -40 19 04   0.2910  1.2233   131.4    38.3    22.0
...
2024 06 01    20 05 37.1 -34 17 09   0.2461  1.1950   132.8    38.5    21.5
...
2024 06 09    20 33 31.6 -29 24 11   0.2316  1.1879   134.1    37.9    21.4
...
2024 06 15    20 50 41.9 -25 14 55   0.2249  1.1864   135.4    36.9    21.3
2024 06 16    20 53 14.1 -24 31 53   0.2241  1.1865   135.7    36.7    21.3
2024 06 17    20 55 40.6 -23 48 36   0.2234  1.1867   136.0    36.5    21.3
...
2024 06 23    21 08 22.4 -19 26 43   0.2212  1.1897   137.9    35.0    21.2
...
2024 07 01    21 20 13.8 -13 48 10   0.2232  1.1987   141.1    32.1    21.2
...
2024 07 16    21 28 55.1 -05 03 12   0.2416  1.2305   149.4    24.9    21.2

M. P. C. Staff               (C) Copyright 2024 MPC           M.P.E.C. 2024-M04





More information about the Iaude mailing list